Location: Casa Rossa
(45.2389°N, 12.2056°E)
Time: 23:17:47
(UTC+00:00)

Cosmos 1869 Rocket - Pass Details

Date: 14 July 2020
Orbit: 606 x 632 km, 82.5° (Epoch: 14 August)

Event Time Altitude Azimuth Distance (km) Brightness Sun altitude
Exits shadow 00:27:34 36° 133° (SE) 964 4.3 -21.2°
Maximum altitude 00:28:40 45° 93° (E) 838 4.3 -21.2°
Drops below altitude 10° 00:32:49 10° 21° (NNE) 1,970 7.3 -20.9°
Sets 00:35:07 0° 15° (NNE) 2,883 8.6 -20.8°
